Location: Rounton
(54.4000°N, 1.3500°W)
Time: 08:58:06
(UTC+00:00)

Vanguard 1 Rocket - Pass Details

Date: 01 December 2021
Orbit: 651 x 4224 km, 34.3° (Epoch: 19 January)

Event Time Altitude Azimuth Distance (km) Brightness Sun altitude
Rises 02:27:25 0° 206° (SSW) 4,903 - -46.6°
Reaches altitude 10° 02:30:56 10° 193° (SSW) 4,368 - -46.2°
Exits shadow 02:37:32 24° 160° (SSE) 4,122 10.5 -45.3°
Maximum altitude 02:40:37 25° 143° (SE) 4,344 10.7 -45.0°
Drops below altitude 10° 02:55:15 10° 99° (E) 6,781 12.3 -43.1°
Sets 03:02:45 0° 89° (E) 8,214 13.0 -42.1°
